Regional Weather Roundup
Issued by NWS

Home | Current Version | Previous Version | Text Only | Print | Product List | Glossary Off
Versions: 1 2 3 4 5 6 7 8 9 10 11 12 13 14 15 16 17 18 19 20 21 22 23 24 25 26 27 28 29 30 31 32 33 34 35 36 37 38 39 40 41 42 43 44 45 46 47 48 49 50

000
ASUS43 KBIS 180002
RWRND

NORTH DAKOTA REGIONAL WEATHER ROUNDUP
NATIONAL WEATHER SERVICE BISMARCK ND
700 PM CDT TUE OCT 17 2017

NOTE: "FAIR" INDICATES FEW OR NO CLOUDS BELOW 12,000 FEET WITH NO
SIGNIFICANT WEATHER AND/OR OBSTRUCTIONS TO VISIBILITY.


NDZ001>003-009>011-017-180100-
NORTHWEST NORTH DAKOTA

CITY           SKY/WX    TMP DP  RH WIND       PRES   REMARKS
WILLISTON      CLOUDY    69  26  20 S7        29.59F
6HR MIN TEMP:  69; 6HR MAX TEMP:  77;

MINOT          CLEAR     70  31  23 S14       29.60F
MINOT AFB      CLEAR     67  31  27 SW15      29.57F
$$

NDZ018>021-031>035-040>046-180100-
SOUTHWEST NORTH DAKOTA

CITY           SKY/WX    TMP DP  RH WIND       PRES   REMARKS
BISMARCK       CLOUDY    71  27  19 SW8       29.71F
6HR MIN TEMP:  71; 6HR MAX TEMP:  80;

DICKINSON      CLEAR     59  25  27 SW13      29.70F
GARRISON         N/A     61  31  32 SW12      29.65F
6HR MIN TEMP:  61; 6HR MAX TEMP:  75;

HETTINGER ARPT CLEAR     59  25  27 SW8       29.79F
$$

NDZ004>008-012>016-024-026-027-054-180100-
NORTHEAST NORTH DAKOTA

CITY           SKY/WX    TMP DP  RH WIND       PRES   REMARKS
GRAND FORKS    PTCLDY    64  33  31 SW9       29.66F
GRND FRKS AFB  CLEAR     66  30  26 SW9       29.66F
DEVILS LAKE    CLEAR     64  38  38 S8        29.65F
$$

NDZ022-023-025-028>030-036>039-047>053-180100-
SOUTHEAST NORTH DAKOTA

CITY           SKY/WX    TMP DP  RH WIND       PRES   REMARKS
FARGO          CLEAR     66  42  41 S12       29.73F
6HR MIN TEMP:  66; 6HR MAX TEMP:  76;

JAMESTOWN      CLEAR     62  32  32 S7        29.72F
$$





USA.gov is the U.S. government's official web portal to all federal, state and local government web resources and services.